331  
NZUS93 KARX 211410  
HRRWXR  
 
CURRENT HOURLY OBSERVATIONS ACROSS  
MUCH OF THE UPPER MISSISSIPPI VALLEY  
NATIONAL WEATHER SERVICE LA CROSSE WI  
900 AM CDT MON MAY 21 2018  
 
   
..SOUTHEAST MINNESOTA
 
 
 
CITY SKY/WX TMP DP RH WIND PRES REMARKS  
ROCHESTER CLOUDY 56 50 80 E13 30.09S  
ROCHESTER/MAYO PTSUNNY 56 47 70 E6 30.08F  
WINONA CLOUDY 55 41 58 E8 30.08F  
AUSTIN CLOUDY 55 48 76 SE10 30.06S  
ALBERT LEA CLOUDY 57 50 77 SE6 30.06S  
DODGE CENTER CLOUDY 57 48 72 E9 30.08S  
PRESTON CLOUDY 54 49 83 E8 30.09S  
OWATONNA CLOUDY 57 52 82 SE7 30.08S  
FARIBAULT CLOUDY 61 52 72 CALM 30.09S  

 
   
..ELSEWHERE IN MINNESOTA
 
 
 
CITY SKY/WX TMP DP RH WIND PRES REMARKS  
MINNEAPOLIS CLOUDY 62 47 57 SE9 30.09S  
INTNL FALLS FAIR 63 36 36 S5 30.14S  
DULUTH FAIR 63 42 46 VRB3 30.15S  
RED WING CLOUDY 61 39 44 SE9 30.09S  
REDWOOD FALLS LGT RAIN 56 55 97 SE6 30.06S FOG  
MANKATO CLOUDY 57 53 86 SE9 30.08R  
WORTHINGTON CLOUDY 54 54 100 SE7 30.06S FOG  
FAIRMONT CLOUDY 56 54 93 SE9 30.07R  

 
   
..SOUTHWEST WISCONSIN
 
 
 
CITY SKY/WX TMP DP RH WIND PRES REMARKS  
LA CROSSE CLOUDY 57 42 57 E5 30.11S  
PRAIRIE DU CHI LGT RAIN 53 50 92 E3 30.09S  
BOSCOBEL HVY RAIN 52 49 89 VRB3 30.10F FOG  
LONE ROCK LGT RAIN 53 49 86 E8 30.11F  
PLATTEVILLE CLOUDY 53 53 100 E13 30.08S  
FORT MC COY CLOUDY 54 44 69 E7 30.14R  
MAUSTON-NEW LI CLOUDY 53 43 70 E6 30.14S  
VIROQUA CLOUDY 52 45 77 E9 30.11S  
WIS DELLS CLOUDY 52 44 75 E7 30.14S  

 
   
..ELSEWHERE IN WISCONSIN
 
 
 
CITY SKY/WX TMP DP RH WIND PRES REMARKS  
MILWAUKEE RAIN 49 47 93 NE10 30.16F FOG  
MADISON LGT RAIN 51 49 92 E9 30.12F  
GREEN BAY FAIR 54 42 64 E6 30.19R  
EAU CLAIRE CLOUDY 55 36 48 E8 30.13S  
BLACK RVR FLS CLOUDY 55 37 50 E8 30.13F  
MEDFORD PTSUNNY 53 33 46 E7 30.16R  
WAUSAU FAIR 55 34 45 E7 30.16S  
WIS RAPIDS PTSUNNY 54 36 50 E10 30.17S  
MARSHFIELD CLOUDY 53 37 54 E10 30.15S  
RICE LAKE PTSUNNY 59 28 30 E6 30.16S  

 
   
..NORTHEAST IOWA
 
 
 
CITY SKY/WX TMP DP RH WIND PRES REMARKS  
WATERLOO CLOUDY 54 54 100 E9 30.04S  
DUBUQUE FOG 52 51 97 NE10 30.06F VSB 1/4  
DECORAH LGT RAIN 52 52 100 E8 30.07S  
MASON CITY CLOUDY 56 54 93 SE7 30.07S  
CHARLES CITY CLOUDY 54 52 94 E9 30.06S  
OELWEIN LGT RAIN 54 52 94 E12 30.06S  

 
   
..ELSEWHERE IN IOWA
 
 
 
CITY SKY/WX TMP DP RH WIND PRES REMARKS  
DES MOINES CLOUDY 60 58 92 E3 30.02R FOG  
IOWA CITY LGT RAIN 56 54 93 E10 30.05S FOG  
FORT DODGE CLOUDY 57 55 94 E7 30.05S FOG  
MARSHALLTOWN CLOUDY 56 56 100 E12 30.03R  
CEDAR RAPIDS LGT RAIN 55 54 96 E13 30.03F FOG  

 
   
..NORTHERN ILLINOIS
 
 
 
CITY SKY/WX TMP DP RH WIND PRES REMARKS  
CHICAGO-OHARE LGT RAIN 54 52 93 NE12 30.10F FOG  
CHICAGO-MIDWAY LGT RAIN 56 55 97 E14 30.11F FOG  
MOLINE LGT RAIN 58 55 90 E9 30.05F  
ROCKFORD LGT RAIN 53 52 96 E6 30.12S  
PEORIA RAIN 59 58 96 E5 30.07F FOG  

 
 
NOTE: "FAIR" INDICATES FEW OR NO CLOUDS BELOW 12,000 FEET WITH NO  
SIGNIFICANT WEATHER AND/OR OBSTRUCTIONS TO VISIBILITY. WIND  
SPEEDS ARE IN MILES-PER-HOUR.  
 
 
CLICK HERE TO GO TO PREVIOUS BULLETINS.

The Nexlab WI Page
The Nexlab IA Page
The Nexlab MN Page Main Text Page